CZ-6A DEB

Satellite information

Favourite Embed

Satellite Type and Status

DEBRISIN ORBIT

Key statistics

Satellite CZ-6A DEB at a glance.

Uptime

494

Days in orbit

Revolutions

≈ 14.5

Per day

Orbit

LEO

Low Earth Orbit

Inclination

89.0

Latest

Satellite identification and parameters

Extended collection of information and parameters for CZ-6A DEB.

Object identification

Identified? True

Debris? True

Object name: CZ-6A DEB

International designator: 2024-140Y

Object number (NORAD): 60623

Object ID (CCSDS): 60623

Country: PEOPLES REPUBLIC OF CHINA (PRC)

Current information (Y/N): Y

RCS size: MEDIUM

Orbital parameters

Period: 99.001 minutes

Inclination: 89.0166 deg

SMA: 7089.02 km

Apoapsis: 786.341 km

Periapsis: 635.428 km

RAAN: 293.6825 deg

Eccentricy: 0.01064412

Argument of periapsis: 187.7318 deg

Mean anomaly: 172.2257 deg

Mean motion: 14.54532746 rev/day

Mean motion (dot): 0.00003366 rev/day2

B* drag term: 0.00072841988 1/REarth

Two-line elements (TLE)

Creation date: Dec. 12, 2025, 10:14 a.m.

Reference frame: TEME

Reference center: EARTH

Epoch: Dec. 12, 2025, 7:06 a.m. UTC

TLE line 0: 0 CZ-6A DEB

TLE line 1: 1 60623U 24140Y 25346.29621651 .00003366 00000-0 72842-3 0 9994

TLE line 2: 2 60623 89.0166 293.6825 0106441 187.7318 172.2257 14.54532746 71202

Live tracking on map

Real-time ground track for satellite CZ-6A DEB.

In-orbit conjunctions

A list of the most updated potential collisions computed for object CZ-6A DEB.

Target Orbit TCA Probability of collision Miss distance Type
NOAA 16 DEB SSO 2025-10-12 20:02:11 0.0002003493 273.0 (m) DEBRIS
CZ-6A DEB LEO 2025-02-22 20:29:45 0.0003653469 244.0 (m) DEBRIS
DMSP 5D-2 F11 DEB SSO 2025-02-22 14:11:12 0.000260186 303.0 (m) DEBRIS
COSMOS 2251 DEB LEO 2025-01-18 16:05:21 0.000179169 778.0 (m) DEBRIS
NOAA 16 DEB SSO 2025-01-13 03:56:06 0.0001713463 747.0 (m) DEBRIS

Associated space launch

18 Low Earth Orbit communication satellites with Ku, Q and V band payloads for the G60 constellation operated by Shanghai Spacecom Satellite Technology (SSST) with funding backed by the Shanghai local government. Initial constellation will consist of 1296 satellites by 2027 with long term plans to expand it to 12000 satellites.

CZ-6A DEB was lifted into orbit during the mission ‘Long March 6A | G60 Polar Group 01’, on board a Long March 6A space rocket.

The launch took place on Aug. 6, 2024, 6:42 a.m. from Launch Complex 9A.

For more information about the launch, click the button.

Launch to space Long March 6A | G60 Polar Group 01
Long March 6A | G60 Polar Group 01

Agency: N/A

Status: Launch Successful

Launch date: Aug. 6, 2024, 6:42 a.m. UTC

Rocket: Long March 6A

Launch pad: Launch Complex 9A

Location: Taiyuan Satellite Launch Center, People's Republic of China

...

Latest news about this satellite

News about space launch
Brightness of first Chinese broadband constellation satellites alarms astronomers

The first satellites of a Chinese broadband constellation are significantly brighter than those of Western systems, posing a new challenge for astronomers.

News about space launch
Chinese rocket stage breaks up into cloud of more than 700 pieces of space debris

HELSINKI — A Chinese Long March 6A rocket’s upper stage has fragmented into a cloud of over 700 pieces of space debris, adding to concerns about long-term orbital safety. China […]

News about space launch
China's Thousand Sails Megaconstellation Kicks Off with Dangerous Debris Field

China's Thousand Sails Megaconstellation Kicks Off with Dangerous Debris Field


Newsletter sign-up

Weekly statistics, charts and insights to help you stay on top of the space industry.